Location: Absher
(46.5583°N, 107.9840°W)
Time: 16:02:25
(UTC+00:00)

Envisat - Pass Details

Date: 10 December 2022
Orbit: 763 x 765 km, 98.2° (Epoch: 02 February)

Event Time Altitude Azimuth Distance (km) Brightness Sun altitude
Rises 11:39:00 0° 12° (NNE) 3,244 6.4 -30.9°
Reaches altitude 10° 11:41:19 10° 12° (NNE) 2,314 5.6 -30.6°
Enters shadow 11:41:59 14° 11° (N) 2,051 5.3 -30.4°
